Weather in Sarlat-la-Caneda

France     44°54′37″N   1°12′43″E
temp.,
°C
wind,
m/s
gust,
m/s
humid.,
%
clouds,
%
prec.,
mm/h
press.,
hPa
HPBL,
m
8 december, wed
wed801:00+7w2796100 3.6 1004383
04:00+6sw1191100 0.8 100427
07:00+5sw3694100 3.0 1003678
10:00+5wnw389294 1.2 1003739
13:00+7w378484 1.8 1004804
16:00+6wnw378498 1.1 1004520
19:00+4wnw2892100 2.5 1007292
22:00+3wnw2795100 0.0 1010202
9 december, thu
thu901:00+2wnw2697100 0.1 1012209
04:00+1wnw119812 0.0 101317
07:000wsw019620 0.0 101410
10:00+2sse1192100 0.0 1014106
13:00+5s2484100 0.0 1013456
16:00+6ssw268798 0.0 1011567
19:00+5sw2697100 0.1 1011347
22:00+5sse3897100 0.5 1010355
10 december, fri
fri1001:00+5ssw2899100 2.8 1007388
04:00+9wnw61290100 3.4 10051053
07:00+7wnw51388100 3.7 10061211
10:00+7wnw51180100 0.2 10081126
13:00+8wnw51082100 0.7 10091249
16:00+6wnw61289100 1.0 10101221
19:00+5nw51285100 1.6 10121034
22:00+4nw4128892 0.1 1015842
11 december, sat
sat1101:00+3nw311925 0.1 1018470
04:00+1wnw289672 0.0 1020248
07:00+1wnw119658 0.0 102211
10:00+2nw12905 0.0 1024138
13:00+6nw25765 0.0 1024630
16:00+6nw24805 0.0 1025189
19:00+3nw11936 0.0 102710
22:00+2ne009593 0.0 102910
12 december, sun
sun1201:00+3ne009195 0.0 102919
04:00+4ese119037 0.0 103020
07:00+2ese119485 0.0 103013
10:00+4ese118686 0.0 103179
13:00+8e11755 0.0 1030323
16:00+8nne11825 0.0 102920
19:00+5nne11935 0.0 103010
22:00+4ene11950 0.0 102910